QPF
0.01 0.01 0.00 0.00 0.00 0.00 0.00 0.00 0.00 0.00 0.00 0.00 0.01 0.01 0.01 0.00 0.00 0.00 0.01 0.01 0.00 0.01 0.01 0.02 0.02 0.02 0.01 0.01 0.02 0.02 0.02 0.02 0.02 0.03 0.03 0.03 0.02 0.03 0.05 0.06 0.05 0.07 0.09 0.10
0.01 0.00 0.00 0.00 0.00 0.00 0.01 0.01 0.01 0.00 0.00 0.00 0.01 0.01 0.01 0.01 0.01 0.00 0.00 0.00 0.00 0.01 0.02 0.02 0.02 0.02 0.01 0.01 0.01 0.01 0.02 0.03 0.03 0.03 0.04 0.03 0.03 0.03 0.04 0.04 0.04 0.06 0.08 0.10
0.00 0.00 0.00 0.00 0.00 0.00 0.00 0.01 0.01 0.01 0.01 0.01 0.01 0.01 0.01 0.01 0.01 0.01 0.01 0.00 0.00 0.01 0.01 0.01 0.02 0.02 0.01 0.01 0.01 0.01 0.01 0.01 0.02 0.03 0.03 0.04 0.05 0.05 0.04 0.04 0.05 0.06 0.08 0.09
0.00 0.00 0.00 0.00 0.00 0.00 0.01 0.00 0.00 0.01 0.02 0.02 0.01 0.01 0.01 0.01 0.01 0.01 0.00 0.00 0.00 0.00 0.01 0.01 0.01 0.02 0.02 0.01 0.01 0.01 0.01 0.01 0.01 0.02 0.02 0.03 0.04 0.05 0.04 0.04 0.05 0.07 0.08 0.09
0.00 0.00 0.00 0.00 0.00 0.00 0.00 0.00 0.01 0.01 0.02 0.02 0.01 0.01 0.01 0.00 0.01 0.01 0.00 0.00 0.00 0.00 0.00 0.01 0.01 0.01 0.01 0.01 0.01 0.01 0.01 0.01 0.01 0.02 0.02 0.03 0.04 0.04 0.03 0.03 0.05 0.07 0.07 0.07
0.00 0.00 0.00 0.00 0.00 0.00 0.01 0.01 0.01 0.01 0.02 0.02 0.01 0.01 0.00 0.00 0.00 0.00 0.00 0.00 0.00 0.00 0.00 0.00 0.00 0.01 0.01 0.01 0.01 0.01 0.01 0.01 0.01 0.01 0.02 0.03 0.03 0.03 0.03 0.03 0.04 0.05 0.05 0.06
0.01 0.00 0.00 0.00 0.00 0.00 0.01 0.02 0.03 0.04 0.03 0.01 0.00 0.00 0.01 0.00 0.00 0.00 0.00 0.00 0.00 0.00 0.00 0.00 0.00 0.00 0.01 0.01 0.01 0.01 0.01 0.01 0.01 0.01 0.01 0.01 0.02 0.02 0.03 0.03 0.03 0.03 0.04 0.04
0.01 0.00 0.00 0.00 0.00 0.00 0.00 0.01 0.03 0.04 0.04 0.02 0.00 0.01 0.02 0.00 0.00 0.00 0.00 0.00 0.00 0.00 0.00 0.00 0.00 0.00 0.00 0.00 0.00 0.01 0.01 0.02 0.02 0.01 0.01 0.01 0.01 0.01 0.02 0.02 0.03 0.03 0.03 0.04
0.02 0.01 0.00 0.00 0.00 0.00 0.01 0.01 0.01 0.03 0.03 0.03 0.02 0.01 0.01 0.00 0.00 0.00 0.00 0.00 0.00 0.00 0.00 0.01 0.01 0.00 0.01 0.01 0.01 0.01 0.01 0.01 0.01 0.01 0.01 0.01 0.01 0.01 0.01 0.02 0.02 0.03 0.03 0.04
0.03 0.02 0.01 0.01 0.01 0.01 0.01 0.02 0.03 0.04 0.04 0.04 0.03 0.01 0.01 0.00 0.00 0.00 0.00 0.00 0.00 0.00 0.00 0.01 0.01 0.01 0.01 0.01 0.02 0.02 0.02 0.02 0.01 0.01 0.01 0.01 0.01 0.01 0.02 0.02 0.02 0.03 0.03 0.04
0.03 0.03 0.02 0.01 0.02 0.02 0.01 0.02 0.03 0.03 0.03 0.03 0.04 0.03 0.01 0.00 0.00 0.00 0.00 0.00 0.00 0.00 0.00 0.01 0.01 0.01 0.01 0.03 0.04 0.02 0.02 0.02 0.01 0.01 0.01 0.01 0.02 0.02 0.02 0.02 0.02 0.03 0.03 0.04
0.03 0.04 0.02 0.02 0.01 0.02 0.02 0.01 0.02 0.03 0.02 0.02 0.03 0.03 0.01 0.00 0.00 0.00 0.00 0.00 0.00 0.00 0.00 0.00 0.01 0.01 0.01 0.02 0.03 0.02 0.01 0.02 0.01 0.01 0.01 0.02 0.02 0.02 0.02 0.02 0.02 0.03 0.03 0.04
0.03 0.04 0.04 0.03 0.03 0.02 0.02 0.01 0.01 0.02 0.02 0.02 0.02 0.02 0.01 0.00 0.00 0.00 0.00 0.00 0.00 0.00 0.00 0.00 0.00 0.00 0.00 0.00 0.00 0.00 0.01 0.01 0.01 0.01 0.01 0.02 0.02 0.02 0.02 0.02 0.03 0.03 0.03 0.04
0.02 0.03 0.03 0.03 0.02 0.01 0.01 0.01 0.01 0.01 0.02 0.01 0.01 0.01 0.00 0.00 0.00 0.00 0.00 0.00 0.00 0.00 0.00 0.00 0.00 0.00 0.00 0.00 0.00 0.00 0.00 0.00 0.01 0.01 0.01 0.02 0.02 0.02 0.02 0.02 0.02 0.02 0.03 0.03
0.02 0.02 0.01 0.01 0.00 0.00 0.01 0.00 0.01 0.01 0.01 0.01 0.00 0.00 0.00 0.00 0.00 0.00 0.00 0.00 0.00 0.00 0.00 0.00 0.00 0.00 0.00 0.00 0.00 0.00 0.00 0.00 0.01 0.01 0.02 0.02 0.02 0.02 0.02 0.02 0.02 0.02 0.02 0.02
0.02 0.02 0.01 0.01 0.00 0.00 0.01 0.00 0.00 0.00 0.00 0.00 0.00 0.01 0.00 0.00 0.00 0.00 0.00 0.00 0.00 0.00 0.00 0.00 0.00 0.00 0.00 0.00 0.00 0.00 0.00 0.01 0.01 0.01 0.02 0.02 0.03 0.03 0.03 0.03 0.03 0.03 0.03 0.02
0.02 0.02 0.02 0.01 0.01 0.01 0.01 0.00 0.00 0.00 0.00 0.00 0.00 0.00 0.00 0.00 0.00 0.00 0.00 0.00 0.00 0.00 0.00 0.00 0.00 0.00 0.00 0.00 0.00 0.00 0.00 0.01 0.01 0.01 0.01 0.02 0.03 0.03 0.03 0.04 0.04 0.04 0.04 0.03
0.01 0.01 0.02 0.02 0.02 0.02 0.00 0.00 0.00 0.00 0.00 0.00 0.00 0.00 0.00 0.00 0.00 0.00 0.00 0.00 0.00 0.00 0.00 0.00 0.00 0.00 0.00 0.00 0.00 0.00 0.00 0.00 0.00 0.01 0.01 0.02 0.03 0.03 0.04 0.04 0.05 0.05 0.04 0.03
0.01 0.01 0.03 0.03 0.02 0.01 0.00 0.00 0.00 0.00 0.00 0.00 0.00 0.00 0.00 0.00 0.00 0.00 0.00 0.00 0.00 0.00 0.00 0.00 0.00 0.00 0.00 0.00 0.00 0.00 0.00 0.00 0.00 0.00 0.01 0.01 0.02 0.02 0.02 0.03 0.03 0.03 0.03 0.03
0.01 0.01 0.03 0.04 0.03 0.01 0.00 0.00 0.00 0.00 0.00 0.00 0.00 0.00 0.00 0.00 0.01 0.00 0.00 0.00 0.00 0.00 0.00 0.00 0.00 0.00 0.00 0.00 0.00 0.00 0.00 0.00 0.00 0.01 0.01 0.01 0.01 0.02 0.02 0.02 0.02 0.02 0.02 0.02
0.02 0.03 0.04 0.03 0.03 0.02 0.01 0.00 0.00 0.01 0.01 0.01 0.00 0.00 0.00 0.00 0.01 0.01 0.00 0.00 0.00 0.00 0.00 0.00 0.00 0.00 0.00 0.00 0.00 0.00 0.01 0.01 0.01 0.01 0.01 0.02 0.02 0.01 0.01 0.01 0.01 0.01 0.02 0.02
0.01 0.02 0.02 0.03 0.04 0.03 0.01 0.01 0.01 0.02 0.01 0.01 0.00 0.00 0.00 0.01 0.01 0.01 0.01 0.00 0.00 0.00 0.00 0.00 0.00 0.00 0.00 0.00 0.00 0.01 0.01 0.01 0.01 0.01 0.01 0.01 0.01 0.01 0.01 0.01 0.01 0.01 0.01 0.01
0.01 0.01 0.01 0.01 0.02 0.01 0.01 0.01 0.01 0.01 0.01 0.01 0.01 0.01 0.01 0.01 0.01 0.01 0.00 0.00 0.00 0.00 0.00 0.00 0.00 0.00 0.00 0.00 0.00 0.00 0.00 0.00 0.01 0.01 0.01 0.01 0.01 0.01 0.01 0.01 0.01 0.01 0.01 0.01
0.01 0.01 0.01 0.01 0.01 0.01 0.01 0.01 0.01 0.01 0.01 0.01 0.01 0.00 0.00 0.00 0.00 0.00 0.00 0.00 0.00 0.00 0.00 0.00 0.00 0.00 0.00 0.00 0.00 0.00 0.00 0.00 0.00 0.01 0.01 0.01 0.01 0.01 0.01 0.01 0.01 0.01 0.01 0.01
0.02 0.02 0.02 0.02 0.02 0.01 0.01 0.01 0.01 0.01 0.01 0.01 0.01 0.01 0.00 0.00 0.00 0.00 0.00 0.00 0.00 0.00 0.00 0.00 0.00 0.00 0.00 0.00 0.00 0.00 0.00 0.00 0.00 0.01 0.01 0.01 0.01 0.01 0.01 0.01 0.01 0.01 0.01 0.01
0.03 0.02 0.02 0.02 0.02 0.01 0.01 0.01 0.01 0.01 0.01 0.01 0.01 0.01 0.00 0.00 0.00 0.00 0.00 0.00 0.00 0.00 0.00 0.00 0.00 0.00 0.00 0.00 0.00 0.00 0.00 0.01 0.01 0.01 0.01 0.01 0.01 0.01 0.01 0.01 0.01 0.01 0.01 0.01
MSLP
1021.41 1021.58 1021.72 1021.84 1021.98 1022.16 1022.41 1022.74 1023.15 1023.60 1024.05 1024.46 1024.77 1024.96 1025.00 1024.90 1024.68 1024.38 1024.05 1023.74 1023.47 1023.29 1023.21 1023.22 1023.32 1023.48 1023.68 1023.90 1024.10 1024.28 1024.42 1024.52 1024.58 1024.62 1024.65 1024.67 1024.70 1024.74 1024.79 1024.85 1024.92 1025.00 1025.07 1025.15
1022.09 1022.28 1022.43 1022.54 1022.65 1022.79 1023.00 1023.28 1023.65 1024.06 1024.49 1024.88 1025.19 1025.37 1025.41 1025.30 1025.08 1024.76 1024.41 1024.07 1023.77 1023.55 1023.42 1023.39 1023.44 1023.55 1023.70 1023.87 1024.04 1024.20 1024.32 1024.42 1024.49 1024.54 1024.57 1024.58 1024.59 1024.60 1024.60 1024.59 1024.58 1024.58 1024.58 1024.61
1022.85 1023.11 1023.30 1023.43 1023.55 1023.67 1023.84 1024.07 1024.36 1024.69 1025.03 1025.34 1025.57 1025.69 1025.69 1025.56 1025.33 1025.02 1024.69 1024.36 1024.09 1023.88 1023.75 1023.69 1023.71 1023.77 1023.86 1023.97 1024.08 1024.19 1024.28 1024.37 1024.44 1024.49 1024.53 1024.54 1024.53 1024.50 1024.44 1024.36 1024.28 1024.19 1024.12 1024.08
1023.61 1023.96 1024.22 1024.42 1024.57 1024.70 1024.83 1025.00 1025.19 1025.39 1025.59 1025.75 1025.84 1025.85 1025.75 1025.57 1025.33 1025.05 1024.77 1024.52 1024.31 1024.17 1024.08 1024.04 1024.04 1024.06 1024.09 1024.13 1024.17 1024.21 1024.26 1024.32 1024.37 1024.43 1024.47 1024.48 1024.45 1024.39 1024.28 1024.14 1023.98 1023.83 1023.69 1023.59
1024.27 1024.73 1025.09 1025.38 1025.58 1025.74 1025.85 1025.95 1026.02 1026.07 1026.09 1026.05 1025.95 1025.78 1025.56 1025.31 1025.05 1024.80 1024.60 1024.45 1024.36 1024.32 1024.32 1024.33 1024.34 1024.34 1024.32 1024.29 1024.25 1024.22 1024.22 1024.24 1024.27 1024.32 1024.35 1024.36 1024.33 1024.24 1024.10 1023.91 1023.70 1023.49 1023.31 1023.17
1024.77 1025.33 1025.80 1026.18 1026.47 1026.66 1026.77 1026.80 1026.76 1026.64 1026.45 1026.19 1025.87 1025.51 1025.14 1024.80 1024.50 1024.29 1024.17 1024.14 1024.19 1024.29 1024.40 1024.49 1024.55 1024.54 1024.49 1024.41 1024.31 1024.22 1024.16 1024.13 1024.15 1024.18 1024.21 1024.21 1024.17 1024.08 1023.91 1023.70 1023.46 1023.22 1023.00 1022.83
1025.05 1025.71 1026.28 1026.75 1027.12 1027.36 1027.47 1027.46 1027.31 1027.04 1026.66 1026.19 1025.65 1025.09 1024.57 1024.12 1023.78 1023.59 1023.55 1023.64 1023.82 1024.05 1024.29 1024.48 1024.60 1024.63 1024.57 1024.46 1024.32 1024.19 1024.09 1024.04 1024.03 1024.05 1024.08 1024.09 1024.04 1023.94 1023.77 1023.54 1023.29 1023.03 1022.80 1022.61
1025.13 1025.85 1026.50 1027.05 1027.49 1027.77 1027.90 1027.86 1027.64 1027.25 1026.71 1026.06 1025.34 1024.61 1023.94 1023.39 1023.01 1022.82 1022.83 1023.01 1023.30 1023.66 1024.01 1024.30 1024.49 1024.57 1024.55 1024.45 1024.31 1024.16 1024.05 1023.99 1023.98 1024.00 1024.03 1024.04 1023.99 1023.89 1023.71 1023.48 1023.22 1022.96 1022.72 1022.52
1025.07 1025.82 1026.51 1027.11 1027.58 1027.91 1028.05 1028.00 1027.73 1027.27 1026.62 1025.85 1024.99 1024.14 1023.36 1022.73 1022.30 1022.10 1022.13 1022.35 1022.72 1023.16 1023.59 1023.97 1024.24 1024.39 1024.42 1024.37 1024.27 1024.16 1024.08 1024.04 1024.05 1024.08 1024.12 1024.13 1024.08 1023.97 1023.78 1023.54 1023.27 1023.00 1022.76 1022.56
1024.93 1025.67 1026.36 1026.97 1027.46 1027.80 1027.95 1027.89 1027.61 1027.11 1026.41 1025.57 1024.65 1023.73 1022.89 1022.21 1021.74 1021.52 1021.53 1021.76 1022.14 1022.62 1023.10 1023.54 1023.88 1024.10 1024.22 1024.25 1024.23 1024.20 1024.18 1024.20 1024.25 1024.31 1024.36 1024.37 1024.32 1024.19 1023.99 1023.74 1023.45 1023.17 1022.92 1022.71
1024.81 1025.50 1026.16 1026.73 1027.20 1027.51 1027.65 1027.57 1027.28 1026.77 1026.07 1025.24 1024.31 1023.39 1022.54 1021.84 1021.34 1021.09 1021.07 1021.27 1021.63 1022.09 1022.58 1023.05 1023.45 1023.75 1023.96 1024.10 1024.19 1024.27 1024.36 1024.46 1024.57 1024.67 1024.74 1024.76 1024.69 1024.55 1024.32 1024.05 1023.74 1023.44 1023.17 1022.95
1024.79 1025.42 1025.99 1026.49 1026.87 1027.11 1027.19 1027.07 1026.76 1026.26 1025.59 1024.79 1023.92 1023.04 1022.23 1021.55 1021.06 1020.79 1020.73 1020.88 1021.19 1021.61 1022.08 1022.55 1022.98 1023.36 1023.67 1023.94 1024.16 1024.37 1024.58 1024.78 1024.96 1025.11 1025.21 1025.22 1025.15 1024.98 1024.73 1024.42 1024.10 1023.78 1023.50 1023.27
1024.91 1025.45 1025.91 1026.28 1026.53 1026.65 1026.62 1026.42 1026.07 1025.56 1024.92 1024.18 1023.39 1022.60 1021.87 1021.26 1020.80 1020.53 1020.45 1020.54 1020.80 1021.16 1021.60 1022.07 1022.53 1022.98 1023.39 1023.78 1024.14 1024.49 1024.81 1025.11 1025.37 1025.57 1025.69 1025.71 1025.62 1025.43 1025.16 1024.84 1024.50 1024.17 1023.88 1023.65
1025.18 1025.61 1025.93 1026.14 1026.21 1026.15 1025.96 1025.64 1025.20 1024.66 1024.03 1023.36 1022.66 1021.99 1021.37 1020.85 1020.46 1020.22 1020.14 1020.22 1020.43 1020.75 1021.16 1021.63 1022.12 1022.63 1023.14 1023.64 1024.13 1024.60 1025.04 1025.43 1025.75 1025.99 1026.13 1026.14 1026.05 1025.86 1025.58 1025.26 1024.92 1024.61 1024.33 1024.12
1025.55 1025.85 1026.01 1026.02 1025.89 1025.61 1025.22 1024.73 1024.17 1023.57 1022.94 1022.31 1021.71 1021.15 1020.66 1020.26 1019.97 1019.80 1019.76 1019.84 1020.05 1020.36 1020.76 1021.24 1021.78 1022.35 1022.95 1023.56 1024.16 1024.73 1025.25 1025.71 1026.07 1026.34 1026.48 1026.50 1026.41 1026.23 1025.97 1025.67 1025.37 1025.10 1024.86 1024.69
1025.91 1026.08 1026.07 1025.88 1025.52 1025.01 1024.40 1023.72 1023.02 1022.33 1021.67 1021.07 1020.55 1020.10 1019.75 1019.48 1019.31 1019.24 1019.26 1019.40 1019.64 1019.97 1020.41 1020.93 1021.53 1022.17 1022.86 1023.55 1024.23 1024.88 1025.46 1025.95 1026.34 1026.61 1026.76 1026.79 1026.71 1026.55 1026.33 1026.09 1025.86 1025.65 1025.49 1025.37
1026.14 1026.18 1026.01 1025.62 1025.05 1024.32 1023.49 1022.63 1021.78 1020.99 1020.30 1019.72 1019.26 1018.91 1018.68 1018.54 1018.50 1018.54 1018.67 1018.89 1019.20 1019.61 1020.11 1020.70 1021.37 1022.10 1022.87 1023.64 1024.38 1025.08 1025.69 1026.19 1026.58 1026.84 1026.98 1027.02 1026.97 1026.85 1026.70 1026.54 1026.39 1026.28 1026.20 1026.15
1026.14 1026.06 1025.74 1025.18 1024.42 1023.51 1022.51 1021.49 1020.53 1019.66 1018.93 1018.36 1017.94 1017.68 1017.55 1017.54 1017.62 1017.78 1018.03 1018.35 1018.77 1019.27 1019.87 1020.56 1021.32 1022.14 1022.99 1023.83 1024.62 1025.34 1025.96 1026.46 1026.83 1027.08 1027.21 1027.25 1027.23 1027.17 1027.09 1027.03 1026.99 1026.97 1026.98 1027.01
1025.79 1025.61 1025.17 1024.49 1023.61 1022.58 1021.47 1020.35 1019.31 1018.40 1017.66 1017.10 1016.73 1016.53 1016.49 1016.57 1016.75 1017.03 1017.38 1017.82 1018.35 1018.97 1019.68 1020.49 1021.36 1022.28 1023.20 1024.11 1024.94 1025.68 1026.30 1026.78 1027.13 1027.35 1027.48 1027.53 1027.54 1027.54 1027.55 1027.58 1027.63 1027.71 1027.81 1027.89
1025.09 1024.81 1024.30 1023.55 1022.60 1021.52 1020.37 1019.23 1018.18 1017.28 1016.55 1016.02 1015.70 1015.55 1015.57 1015.72 1015.99 1016.35 1016.80 1017.34 1017.97 1018.71 1019.55 1020.47 1021.45 1022.47 1023.48 1024.45 1025.32 1026.08 1026.69 1027.15 1027.48 1027.69 1027.81 1027.88 1027.92 1027.98 1028.06 1028.17 1028.31 1028.47 1028.62 1028.75
1024.03 1023.69 1023.13 1022.36 1021.41 1020.35 1019.24 1018.15 1017.15 1016.30 1015.63 1015.16 1014.88 1014.78 1014.84 1015.04 1015.36 1015.78 1016.30 1016.93 1017.66 1018.50 1019.45 1020.49 1021.58 1022.70 1023.79 1024.82 1025.73 1026.51 1027.12 1027.58 1027.89 1028.09 1028.21 1028.30 1028.38 1028.48 1028.62 1028.79 1028.99 1029.20 1029.38 1029.52
1022.71 1022.32 1021.73 1020.97 1020.07 1019.08 1018.07 1017.08 1016.20 1015.45 1014.87 1014.48 1014.25 1014.20 1014.30 1014.53 1014.88 1015.33 1015.91 1016.60 1017.41 1018.35 1019.40 1020.53 1021.73 1022.93 1024.10 1025.18 1026.14 1026.94 1027.56 1028.02 1028.33 1028.54 1028.67 1028.78 1028.89 1029.03 1029.21 1029.42 1029.65 1029.87 1030.06 1030.17
1021.21 1020.77 1020.18 1019.46 1018.63 1017.75 1016.86 1016.02 1015.28 1014.67 1014.21 1013.91 1013.76 1013.76 1013.89 1014.14 1014.52 1015.01 1015.62 1016.37 1017.25 1018.26 1019.39 1020.61 1021.89 1023.17 1024.40 1025.53 1026.52 1027.34 1027.98 1028.45 1028.78 1029.00 1029.15 1029.28 1029.42 1029.59 1029.80 1030.03 1030.27 1030.49 1030.65 1030.73
1019.65 1019.16 1018.56 1017.87 1017.12 1016.36 1015.61 1014.93 1014.35 1013.89 1013.56 1013.37 1013.30 1013.36 1013.54 1013.84 1014.24 1014.77 1015.43 1016.23 1017.17 1018.25 1019.45 1020.75 1022.09 1023.42 1024.69 1025.85 1026.87 1027.71 1028.36 1028.85 1029.19 1029.43 1029.61 1029.77 1029.94 1030.14 1030.37 1030.61 1030.85 1031.04 1031.17 1031.21
1018.09 1017.53 1016.91 1016.25 1015.57 1014.92 1014.31 1013.79 1013.36 1013.05 1012.86 1012.78 1012.82 1012.96 1013.21 1013.57 1014.03 1014.62 1015.34 1016.21 1017.22 1018.36 1019.62 1020.97 1022.34 1023.71 1025.00 1026.17 1027.19 1028.03 1028.69 1029.19 1029.55 1029.81 1030.02 1030.22 1030.42 1030.65 1030.90 1031.15 1031.38 1031.56 1031.66 1031.65
1016.55 1015.92 1015.26 1014.61 1014.00 1013.43 1012.95 1012.56 1012.28 1012.12 1012.06 1012.11 1012.26 1012.51 1012.86 1013.31 1013.87 1014.55 1015.37 1016.32 1017.40 1018.61 1019.93 1021.30 1022.69 1024.06 1025.33 1026.49 1027.48 1028.31 1028.96 1029.45 1029.83 1030.12 1030.37 1030.60 1030.84 1031.11 1031.38 1031.65 1031.89 1032.06 1032.14 1032.11
Thickness
5598 5591 5586 5588 5590 5593 5596 5595 5594 5596 5594 5590 5591 5596 5602 5605 5604 5604 5605 5606 5606 5607 5608 5607 5605 5602 5599 5596 5592 5589 5586 5583 5579 5576 5573 5570 5567 5565 5562 5560 5558 5557 5556 5555
5588 5581 5583 5586 5588 5588 5589 5587 5589 5591 5588 5586 5588 5594 5603 5605 5604 5604 5605 5605 5605 5605 5604 5603 5601 5599 5596 5593 5589 5586 5583 5579 5576 5573 5570 5567 5563 5559 5556 5554 5552 5551 5551 5550
5580 5578 5581 5582 5581 5582 5582 5580 5580 5578 5579 5582 5581 5591 5602 5606 5605 5605 5606 5605 5604 5603 5601 5600 5598 5594 5591 5588 5585 5583 5579 5576 5573 5570 5566 5563 5558 5554 5551 5549 5547 5546 5545 5544
5572 5574 5575 5575 5573 5574 5575 5574 5573 5571 5568 5572 5578 5574 5598 5604 5602 5603 5602 5602 5602 5601 5599 5598 5595 5591 5588 5585 5582 5579 5576 5573 5569 5566 5562 5559 5555 5551 5549 5546 5544 5541 5539 5538
5566 5566 5567 5568 5567 5567 5567 5568 5566 5566 5565 5564 5572 5568 5590 5603 5601 5602 5603 5602 5602 5600 5598 5596 5593 5590 5586 5583 5579 5576 5573 5569 5566 5562 5559 5556 5553 5549 5545 5541 5539 5536 5534 5533
5557 5559 5559 5560 5560 5561 5561 5561 5562 5560 5557 5556 5574 5568 5584 5598 5605 5607 5606 5604 5601 5598 5595 5593 5590 5587 5584 5580 5576 5573 5569 5566 5563 5559 5556 5552 5549 5545 5541 5538 5536 5533 5530 5528
5556 5554 5553 5553 5553 5555 5555 5553 5551 5551 5548 5560 5576 5570 5582 5603 5610 5611 5607 5602 5599 5596 5592 5589 5586 5584 5581 5577 5574 5570 5566 5563 5559 5555 5552 5549 5545 5542 5539 5536 5533 5529 5526 5523
5557 5554 5549 5547 5549 5550 5553 5554 5546 5546 5553 5563 5565 5571 5591 5605 5607 5608 5606 5602 5597 5593 5590 5587 5584 5581 5578 5575 5570 5566 5563 5559 5555 5552 5548 5545 5541 5538 5535 5533 5529 5526 5522 5519
5555 5551 5542 5541 5543 5544 5550 5548 5551 5546 5538 5541 5566 5589 5595 5599 5600 5599 5598 5596 5592 5590 5587 5583 5580 5577 5574 5570 5566 5563 5559 5554 5551 5548 5544 5541 5538 5534 5531 5529 5525 5522 5518 5515
5545 5541 5538 5536 5535 5536 5539 5543 5540 5540 5542 5551 5575 5585 5586 5590 5592 5592 5591 5589 5589 5586 5583 5580 5576 5572 5569 5565 5562 5558 5554 5550 5547 5543 5540 5537 5533 5530 5527 5524 5520 5517 5513 5510
5536 5533 5529 5529 5530 5538 5531 5535 5539 5542 5544 5549 5557 5575 5598 5596 5594 5590 5588 5587 5585 5581 5578 5575 5571 5567 5563 5560 5556 5553 5549 5546 5542 5538 5535 5531 5528 5525 5521 5518 5514 5511 5507 5503
5527 5527 5528 5532 5531 5530 5534 5540 5539 5536 5539 5541 5549 5566 5592 5593 5592 5588 5585 5583 5580 5578 5574 5569 5565 5560 5556 5553 5551 5548 5545 5541 5537 5534 5530 5526 5523 5519 5515 5512 5508 5505 5501 5497
5520 5518 5521 5528 5525 5517 5522 5530 5534 5532 5531 5533 5538 5563 5583 5583 5583 5582 5580 5577 5573 5570 5567 5563 5558 5554 5550 5547 5545 5542 5539 5536 5532 5528 5524 5520 5516 5512 5508 5505 5502 5498 5494 5490
5515 5508 5516 5528 5535 5522 5515 5520 5522 5521 5518 5531 5545 5561 5575 5576 5574 5573 5572 5570 5565 5562 5558 5554 5550 5547 5544 5542 5539 5536 5533 5530 5526 5521 5517 5513 5510 5506 5502 5498 5494 5490 5486 5482
5501 5498 5502 5510 5516 5517 5519 5519 5515 5517 5526 5532 5550 5556 5569 5571 5569 5567 5565 5562 5558 5555 5551 5548 5544 5541 5538 5535 5532 5529 5526 5522 5519 5514 5511 5507 5503 5499 5494 5490 5486 5482 5478 5475
5487 5488 5489 5493 5503 5504 5505 5515 5518 5519 5524 5531 5540 5549 5563 5564 5562 5559 5556 5553 5549 5546 5544 5541 5538 5535 5531 5528 5525 5522 5518 5515 5511 5507 5503 5499 5494 5490 5486 5482 5478 5474 5470 5466
5475 5475 5479 5491 5492 5492 5502 5525 5524 5524 5529 5531 5535 5548 5556 5554 5551 5547 5545 5543 5540 5538 5536 5533 5530 5527 5523 5520 5517 5513 5510 5505 5501 5496 5492 5488 5484 5481 5477 5473 5469 5465 5461 5457
5468 5467 5468 5474 5480 5493 5535 5542 5538 5530 5530 5530 5534 5540 5543 5543 5541 5536 5535 5532 5528 5527 5525 5523 5520 5517 5514 5511 5508 5504 5500 5496 5491 5486 5482 5478 5474 5471 5467 5464 5460 5456 5452 5448
5466 5464 5463 5465 5473 5495 5526 5529 5526 5521 5521 5528 5527 5530 5530 5530 5527 5525 5524 5522 5519 5517 5515 5512 5510 5507 5504 5501 5498 5494 5490 5486 5481 5477 5473 5469 5465 5461 5457 5454 5451 5447 5443 5438
5452 5454 5455 5460 5468 5482 5524 5520 5520 5517 5511 5521 5519 5517 5516 5514 5514 5519 5517 5514 5510 5508 5504 5501 5499 5496 5493 5490 5487 5483 5479 5475 5471 5468 5464 5460 5455 5452 5449 5445 5441 5437 5433 5429
5433 5436 5441 5452 5458 5478 5509 5500 5505 5505 5508 5509 5507 5505 5502 5498 5501 5503 5502 5501 5499 5496 5493 5490 5487 5484 5481 5477 5475 5471 5468 5464 5461 5457 5453 5449 5446 5442 5439 5435 5431 5427 5423 5418
5441 5436 5435 5444 5450 5473 5486 5480 5486 5494 5495 5492 5491 5489 5488 5487 5489 5488 5487 5486 5484 5482 5480 5477 5474 5471 5468 5464 5461 5459 5457 5454 5449 5446 5442 5439 5435 5432 5428 5423 5420 5416 5412 5407
5445 5454 5451 5457 5473 5481 5471 5473 5476 5475 5474 5473 5472 5472 5471 5471 5473 5474 5473 5471 5470 5467 5464 5461 5459 5457 5454 5451 5449 5447 5445 5440 5437 5434 5430 5427 5423 5420 5416 5412 5408 5404 5400 5396
5436 5441 5442 5443 5456 5462 5458 5457 5457 5456 5454 5455 5454 5454 5453 5454 5457 5457 5456 5455 5453 5451 5448 5446 5444 5442 5440 5438 5435 5433 5431 5427 5424 5421 5418 5415 5411 5408 5404 5400 5397 5393 5390 5386
5428 5416 5419 5425 5437 5441 5445 5442 5441 5441 5439 5438 5439 5439 5439 5439 5440 5441 5440 5440 5438 5436 5433 5431 5429 5428 5426 5424 5421 5419 5417 5414 5411 5409 5405 5402 5398 5395 5392 5389 5386 5383 5381 5377
5411 5405 5407 5425 5427 5423 5430 5430 5427 5424 5424 5424 5423 5424 5423 5422 5424 5424 5424 5423 5421 5419 5417 5415 5413 5412 5411 5409 5407 5405 5403 5401 5398 5396 5393 5389 5386 5383 5380 5377 5374 5372 5368 5365